FW6883 Weather Reports


Display with metric or nautical units.
time (UTC)temp
F
wind
direction
speed
MPH
gust
MPH
rain 1hr
in
rain 24hr
in
rain mn
in
humidity
%
barometer
mb
20260904131538 56 120 2.0 4.0 0.00 0.00 0.00 40 1004.3
20260904130040 56 112 1.0 3.0 0.00 0.00 0.00 40 1004.2
20260904124535 56 79 0.0 2.0 0.00 0.00 0.00 39 1004.1
20260904123037 56 79 0.0 1.0 0.00 0.00 0.00 39 1004.0
20260904121530 56 157 0.0 0.0 0.00 0.00 0.00 40 1003.9
20260904120041 55 123 0.0 0.0 0.00 0.00 0.00 43 1004.0
20260904114526 54 123 0.0 0.0 0.00 0.00 0.00 43 1004.0
20260904113023 56 123 0.0 1.0 0.00 0.00 0.00 40 1003.9
20260904111522 56 123 0.0 2.0 0.00 0.00 0.00 41 1004.0
20260904110019 56 133 0.0 2.0 0.00 0.00 0.00 41 1003.8
20260904104516 56 90 0.0 3.0 0.00 0.00 0.00 41 1003.8
20260904103014 55 60 0.0 0.0 0.00 0.00 0.00 42 1003.7
20260904101518 56 60 0.0 2.0 0.00 0.00 0.00 41 1003.6
20260904100011 56 61 0.0 3.0 0.00 0.00 0.00 41 1003.5
20260904094509 56 58 0.0 3.0 0.00 0.00 0.00 40 1003.5
20260904093007 56 27 1.0 3.0 0.00 0.00 0.00 39 1003.6
20260904091505 56 34 0.0 2.0 0.00 0.00 0.00 40 1003.5
20260904090001 56 335 0.0 1.0 0.00 0.00 0.00 41 1003.7
20260904084601 56 302 1.0 3.0 0.00 0.00 0.00 41 1003.9
20260904083055 55 262 2.0 3.0 0.00 0.00 0.00 44 1003.9
20260904081552 55 271 1.0 3.0 0.00 0.00 0.00 45 1004.2
20260904080113 55 271 2.0 4.0 0.00 0.00 0.00 45 1004.3
20260904074547 56 315 0.0 3.0 0.00 0.00 0.00 44 1004.2
20260904073042 56 267 2.0 3.0 0.00 0.00 0.00 41 1004.5
20260904071536 57 8 1.0 2.0 0.00 0.00 0.00 37 1004.3
20260904070043 59 111 0.0 0.0 0.00 0.00 0.00 29 1004.1
20260904064529 60 111 0.0 1.0 0.00 0.00 0.00 27 1004.2
20260904063029 60 113 0.0 4.0 0.00 0.00 0.00 27 1004.1
20260904061523 60 103 0.0 1.0 0.00 0.00 0.00 27 1004.2
20260904060018 60 103 0.0 2.0 0.00 0.00 0.00 28 1004.3
20260904054611 60 103 0.0 1.0 0.00 0.00 0.00 31 1004.4
20260904053004 61 103 1.0 3.0 0.00 0.00 0.00 27 1004.4
20260904051600 61 91 1.0 4.0 0.00 0.00 0.00 27 1004.5
20260904050056 61 126 0.0 5.0 0.00 0.00 0.00 27 1004.6
20260904044548 60 122 1.0 4.0 0.00 0.00 0.00 28 1004.6
20260904043052 60 127 1.0 4.0 0.00 0.00 0.00 29 1004.6
20260904041536 58 169 1.0 2.0 0.00 0.00 0.00 34 1004.6
20260904040030 58 111 1.0 3.0 0.00 0.00 0.00 38 1004.5
20260904034526 58 110 0.0 2.0 0.00 0.00 0.00 38 1004.3
20260904033028 59 112 1.0 2.0 0.00 0.00 0.00 38 1004.1
20260904031513 59 105 1.0 4.0 0.00 0.00 0.00 36 1004.0
20260904030009 58 105 0.0 3.0 0.00 0.00 0.00 38 1003.9
20260904024507 59 108 1.0 3.0 0.00 0.00 0.00 40 1003.9
20260904023001 59 109 1.0 3.0 0.00 0.00 0.00 40 1003.6
20260904021610 58 160 1.0 2.0 0.00 0.00 0.00 56 1003.5
20260904020056 58 108 2.0 7.0 0.00 0.00 0.00 57 1003.3
20260904014553 59 106 3.0 9.0 0.00 0.00 0.00 55 1003.5
20260904013045 61 86 3.0 9.0 0.00 0.00 0.00 52 1003.8
20260904011537 61 110 5.0 11.0 0.00 0.00 0.00 52 1003.7
20260904010029 62 110 6.0 12.0 0.00 0.00 0.00 49 1003.9
20260904004527 62 108 5.0 12.0 0.00 0.00 0.00 46 1003.9
20260904003020 63 107 5.0 14.0 0.00 0.00 0.00 44 1004.2
20260904001512 64 95 6.0 11.0 0.00 0.00 0.00 40 1004.2
20260904000006 64 95 2.0 10.0 0.00 0.00 0.00 40 1004.3
20260903234501 64 48 5.0 12.0 0.00 0.00 0.00 39 1004.4
20260903233056 63 116 6.0 12.0 0.00 0.00 0.00 39 1004.7
20260903231550 64 113 6.0 12.0 0.00 0.00 0.00 37 1004.6
20260903230044 64 75 6.0 12.0 0.00 0.00 0.00 35 1004.9
20260903224541 64 96 6.0 12.0 0.00 0.00 0.00 35 1004.9
20260903223036 64 75 6.0 10.0 0.00 0.00 0.00 34 1005.1
20260903221527 64 113 5.0 12.0 0.00 0.00 0.00 35 1005.2
20260903220033 64 74 4.0 10.0 0.00 0.00 0.00 35 1005.4
20260903214516 64 70 7.0 12.0 0.00 0.00 0.00 36 1005.5
20260903213009 64 98 5.0 12.0 0.00 0.00 0.00 33 1005.5
20260903211504 64 61 4.0 11.0 0.00 0.00 0.00 31 1005.6
20260903210138 64 80 4.0 11.0 0.00 0.00 0.00 31 1005.6
20260903204602 64 79 3.0 12.0 0.00 0.00 0.00 27 1005.7
20260903203048 64 116 4.0 10.0 0.00 0.00 0.00 26 1005.9
20260903201540 64 103 3.0 10.0 0.00 0.00 0.00 28 1005.9
20260903200034 64 90 4.0 10.0 0.00 0.00 0.00 28 1005.6
20260903194535 64 108 4.0 13.0 0.00 0.00 0.00 24 1005.9
20260903193022 65 56 3.0 10.0 0.00 0.00 0.00 21 1006.0
20260903191528 64 65 3.0 10.0 0.00 0.00 0.00 24 1006.3
20260903190011 65 93 4.0 8.0 0.00 0.00 0.00 23 1006.4
20260903184504 65 90 4.0 8.0 0.00 0.00 0.00 24 1006.5
20260903183102 65 76 4.0 11.0 0.00 0.00 0.00 23 1006.6
20260903181557 64 108 4.0 11.0 0.00 0.00 0.00 22 1006.6
20260903180052 64 103 5.0 11.0 0.00 0.00 0.00 22 1006.5
20260903174545 64 108 4.0 10.0 0.00 0.00 0.00 20 1006.5
20260903173040 63 77 5.0 10.0 0.00 0.00 0.00 22 1006.6
20260903171535 64 79 4.0 8.0 0.00 0.00 0.00 23 1006.2
20260903170039 63 91 3.0 8.0 0.00 0.00 0.00 23 1006.2
20260903164523 63 109 4.0 9.0 0.00 0.00 0.00 25 1006.4
20260903163023 63 99 2.0 7.0 0.00 0.00 0.00 22 1006.2
20260903161510 63 112 3.0 9.0 0.00 0.00 0.00 22 1006.1
20260903160005 63 104 2.0 8.0 0.00 0.00 0.00 22 1006.2
20260903154700 62 103 2.0 6.0 0.00 0.00 0.00 22 1006.2
20260903153056 62 108 3.0 6.0 0.00 0.00 0.00 22 1006.4
20260903151600 62 111 2.0 5.0 0.00 0.00 0.00 19 1006.1
20260903150048 61 102 2.0 5.0 0.00 0.00 0.00 15 1006.2
20260903144535 60 131 1.0 3.0 0.00 0.00 0.00 9 1006.4
20260903143037 60 110 1.0 3.0 0.00 0.00 0.00 10 1006.2
20260903141524 58 114 0.0 3.0 0.00 0.00 0.00 7 1005.9
20260903140024 58 117 0.0 2.0 0.00 0.00 0.00 8 1006.0
20260903134523 57 115 1.0 2.0 0.00 0.00 0.00 7 1006.1
20260903133019 57 113 1.0 3.0 0.00 0.00 0.00 6 1006.0